TIME,DELAY(SENSOR),PRES,OXYGEN,RAWTEMP,T(OPTODE),TCPHASE,FLUOR,BETA(BETA700),BETA(BETA412),BETA(BETA440),CDOM,C(CSC),ED(ED412.20),ED(ED444.00),ED(ED489.60),ED(ED554.30),LU(LU412.10),LU(LU443.90),LU(LU489.70),LU(LU554.70),COMP,TILTX,TILTY,CHECK
1349579630,5808,896.9000244140625000,34.7773704528808600,556.1917114257812000,4.6038651466369630,56.2760200500488300,55,100,100,78,81,15554,0,0,0,0,2147119670,2147775021,2147573010,2147570304,1041,3,13,51135
1349583226,5809,962.7600097656250000,39.3677101135253900,564.2197265625000000,4.3550448417663570,55.6499290466308600,55,99,100,77,83,15556,0,0,0,0,2147121782,2147774710,2147573412,2147567405,114,3,13,31559
1349586826,5809,978.9699707031250000,39.9190292358398440,564.4373779296875000,4.3482909202575680,55.5723800659179700,56,96,100,78,83,15556,0,0,0,0,2147122331,2147773677,2147571236,2147569179,3569,3,13,48141
1349590426,5809,980.9899902343750000,40.2911491394043000,565.4172973632812000,4.3178830146789550,55.5246200561523440,55,99,100,78,81,15556,0,0,0,0,2147124160,2147776045,2147577490,2147568960,267,3,13,32447
1349594026,5808,982.1599731445312000,41.2547912597656250,566.6306152343750000,4.2802181243896480,55.3946113586425800,54,101,100,78,83,15554,0,0,0,0,2147119268,2147777892,2147571684,2147568704,140,3,13,53935
1349597626,5811,986.4299926757812000,41.2785491943359400,566.7697143554688000,4.2758998870849610,55.3929405212402340,54,98,101,78,82,15548,0,0,0,0,2147122861,2147774509,2147574180,2147567542,87,3,13,56328
1349601226,5808,988.1500244140625000,41.0075416564941400,566.7644042968750000,4.2760639190673830,55.4305801391601560,57,99,100,78,84,15555,0,0,0,0,2147121197,2147777270,2147577417,2147569179,130,3,13,29481
1349604826,5812,987.8599853515625000,40.9573593139648440,566.6951293945312000,4.2782168388366700,55.4357986450195300,54,98,102,77,83,15554,0,0,0,0,2147123300,2147772864,2147578404,2147567972,475,3,13,43421
1349608426,5810,997.6400146484375000,40.4037704467773440,566.5838012695312000,4.2816720008850100,55.5167503356933600,55,100,100,78,83,15553,0,0,0,0,2147120713,2147773942,2147578203,2147570560,498,3,13,15687
1349612026,5808,992.4899902343750000,40.3874702453613300,566.6677856445312000,4.2790641784667970,55.5179901123046900,56,100,100,79,83,15548,0,0,0,0,2147120996,2147773065,2147574473,2147569536,107,3,13,15795
1349615626,5809,1000.3400268554688000,40.5281982421875000,566.6744995117188000,4.2788558006286620,55.5041313171386700,54,100,99,78,83,15549,0,0,0,0,2147120320,2147773988,2147572269,2147567378,228,3,13,15354
1349619226,5812,998.2199707031250000,40.4317016601562500,566.0817871093750000,4.2972550392150880,55.5090484619140600,55,98,100,77,84,15550,0,0,0,0,2147122706,2147774537,2147572800,2147569088,48,3,13,40217
1349622826,5810,996.0599975585938000,40.5998687744140600,566.7387695312500000,4.2768588066101070,55.4884490966796900,55,100,100,78,82,15541,0,0,0,0,2147120841,2147773714,2147572352,2147571245,78,3,13,45817
1349626426,5809,994.9299926757812000,40.7620811462402340,566.9265136718750000,4.2710318565368650,55.4716300964355500,56,100,100,78,82,15538,0,0,0,0,2147119716,2147767808,2147576265,2147570688,150,3,13,34733
1349630026,5809,993.8699951171875000,40.1929016113281250,566.6317138671875000,4.2801837921142580,55.5529899597168000,55,99,101,77,83,15538,0,0,0,0,2147121581,2147766912,2147575058,2147569334,3502,3,13,7033
1349633626,5811,987.0499877929688000,39.5222206115722660,566.1795043945312000,4.2942237854003910,55.6483612060546900,56,97,101,78,83,15540,0,0,0,0,2147126345,2147776228,2147572178,2147568804,2848,3,13,60405
1349637226,5811,986.5399780273438000,38.5508613586425800,566.2313232421875000,4.2926158905029300,55.7971305847168000,55,99,100,78,82,15535,0,0,0,0,2147121636,2147777764,2147573275,2147568228,131,3,13,15916
1349640826,5810,992.4899902343750000,38.7279281616210940,566.8798217773438000,4.2724819183349610,55.7774887084960940,55,96,101,78,82,15538,0,0,0,0,2147121444,2147778185,2147578038,2147571538,335,3,13,11015
1349644426,5809,990.7999877929688000,38.3564910888671900,566.3413085937500000,4.2891998291015625,55.8251495361328100,54,99,100,77,84,15534,0,0,0,0,2147122441,2147777069,2147574893,2147567213,371,3,13,62757
1349648026,5809,990.8900146484375000,38.6511993408203100,566.7520751953125000,4.2764468193054200,55.7830009460449200,54,100,100,78,81,15538,0,0,0,0,2147123200,2147775744,2147575597,2147569197,3462,3,13,38859
1349651626,5811,990.3300170898438000,39.1554489135742200,567.4987182617188000,4.2532649040222170,55.7132606506347660,55,98,100,78,83,15536,0,0,0,0,2147123026,2147773988,2147571401,2147567030,279,3,13,9921
1349655226,5809,990.1500244140625000,38.7915382385253900,566.8245849609375000,4.2741951942443850,55.7624397277832000,55,99,101,78,83,15531,0,0,0,0,2147122825,2147771593,2147574966,2147568274,3366,3,13,23019
1349658826,5813,993.2199707031250000,38.4902381896972660,566.5109863281250000,4.2839298248291020,55.8075103759765600,55,100,101,78,82,15534,0,0,0,0,2147121033,2147775369,2147571657,2147567588,70,3,13,3804
1349662426,5810,997.7999877929688000,38.4778404235839840,566.2097167968750000,4.2932848930358890,55.8015213012695300,54,98,100,80,82,15535,0,0,0,0,2147123702,2147774884,2147573056,2147565677,3439,3,13,35321
1349666026,5807,1001.0100097656250000,37.7935104370117200,565.1370239257812000,4.3265819549560550,55.9009513854980500,55,101,99,79,81,15531,0,0,0,0,2147121938,2147782025,2147570980,2147569216,224,3,13,64798
1349669626,5808,997.8699951171875000,37.8335800170898440,565.6926879882812000,4.3093338012695310,55.8999290466308600,54,98,100,78,82,15532,0,0,0,0,2147124352,2147777270,2147571721,2147567771,3387,3,13,11528
1349673226,5808,1001.9099731445312000,37.5705795288085940,565.1751708984375000,4.3253970146179200,55.9327011108398440,54,100,101,78,82,15533,0,0,0,0,2147124224,2147773366,2147576009,2147566573,286,3,13,31019
1349676826,5810,1002.5999755859375000,38.4638900756835940,565.7910766601562000,4.3062801361083980,55.8017692565918000,54,98,101,77,82,15531,0,0,0,0,2147125366,2147774518,2147578532,2147567881,33,3,13,24699
1349680426,5810,1003.6099853515625000,38.7011718750000000,565.8389282226562000,4.3047962188720700,55.7689094543457000,55,99,100,78,82,15531,0,0,0,0,2147123538,2147779702,2147575213,2147566491,15,3,13,60350
1349684026,5809,998.6900024414062000,38.4323806762695300,565.2164916992188000,4.3241138458251950,55.7972793579101560,55,96,99,79,83,15533,0,0,0,0,2147124891,2147772589,2147571492,2147565632,209,3,13,26320
1349687626,5810,1000.6099853515625000,37.0955696105957000,565.1085815429688000,4.3274631500244140,56.0073013305664060,55,97,100,78,82,15531,0,0,0,0,2147124562,2147776045,2147577536,2147570240,359,3,13,39997
1349691226,5808,994.9699707031250000,38.3644981384277340,566.3834838867188000,4.2878909111022950,55.8233909606933600,55,97,100,79,82,15526,0,0,0,0,2147125229,2147776557,2147572480,2147569600,233,3,13,58661
1349694826,5810,994.8900146484375000,37.8825912475585940,567.1151123046875000,4.2651748657226560,55.9050292968750000,55,103,100,77,83,15532,0,0,0,0,2147124004,2147775844,2147576548,2147565769,201,3,13,3697
1349698426,5811,1003.9600219726562000,38.6305007934570300,566.0603027343750000,4.2979240417480470,55.7787590026855500,55,99,102,78,81,15534,0,0,0,0,2147125604,2147779739,2147575030,2147566948,295,3,13,21256
1349702026,5811,1001.8599853515625000,38.8898200988769500,565.3237915039062000,4.3207840919494630,55.7356414794921900,54,99,100,79,82,15536,0,0,0,0,2147123538,2147775542,2147573440,2147565997,3373,3,13,15346
1349705626,5810,1005.1599731445312000,40.7071418762207000,566.9783935546875000,4.2694211006164550,55.4807014465332000,55,100,100,79,83,15533,0,0,0,0,2147125138,2147773650,2147571757,2147566272,3542,3,13,31991
1349709226,5808,1002.0599975585938000,38.3747787475585940,565.9177856445312000,4.3023447990417480,55.8192214965820300,55,99,100,78,83,15533,0,0,0,0,2147126208,2147775424,2147572388,2147569307,222,3,13,17120
1349712826,5808,1006.1099853515625000,40.3640403747558600,566.6981201171875000,4.2781219482421875,55.5255699157714840,55,100,100,76,83,15534,0,0,0,0,2147122249,2147773796,2147571062,2147568557,194,3,13,1200
1349716426,5811,998.0700073242188000,37.8950500488281250,565.5159301757812000,4.3148231506347660,55.8881912231445300,55,98,100,78,82,15528,0,0,0,0,2147124013,2147775552,2147578441,2147566683,3511,3,13,58014
1349720026,5811,1004.4299926757812000,37.8962211608886700,565.5529174804688000,4.3136749267578125,55.8861198425293000,55,100,100,78,82,15532,0,0,0,0,2147122761,2147777472,2147573504,2147565650,5,3,13,63889
1349723626,5811,1000.8300170898438000,37.4271202087402340,565.9758300781250000,4.3005452156066895,55.9674606323242200,55,98,101,78,82,15531,0,0,0,0,2147122724,2147774418,2147573330,2147570230,55,3,13,27893
1349724355,5810,1002.0499877929688000,37.4019508361816400,565.9896850585938000,4.3001160621643070,55.9683113098144500,55,100,100,78,82,15532,0,0,0,0,2147125376,2147769435,2147570788,2147568265,141,3,13,35236
